Year,Month,Day,Hour,Minute,Value (Times are PST for temperature in C)
2017,06,24,00,00,15.10
2017,06,24,00,01,15.10
2017,06,24,00,02,15.00
2017,06,24,00,03,15.00
2017,06,24,00,04,15.00
2017,06,24,00,05,15.00
2017,06,24,00,06,15.00
2017,06,24,00,07,15.00
2017,06,24,00,08,15.00
2017,06,24,00,09,15.00
2017,06,24,00,10,15.00
2017,06,24,00,11,15.00
2017,06,24,00,12,15.00
2017,06,24,00,13,15.00
2017,06,24,00,14,15.00
2017,06,24,00,15,15.00
2017,06,24,00,16,15.00
2017,06,24,00,17,15.00
2017,06,24,00,18,15.00
2017,06,24,00,19,15.00
2017,06,24,00,20,15.00
2017,06,24,00,21,15.00
2017,06,24,00,22,14.90
2017,06,24,00,23,14.90
2017,06,24,00,24,14.90
2017,06,24,00,25,14.80
2017,06,24,00,26,14.80
2017,06,24,00,27,14.80
2017,06,24,00,28,14.80
2017,06,24,00,29,14.80
2017,06,24,00,30,14.80
2017,06,24,00,31,14.70
2017,06,24,00,32,14.70
2017,06,24,00,33,14.70
2017,06,24,00,34,14.70
2017,06,24,00,35,14.70
2017,06,24,00,36,14.70
2017,06,24,00,37,14.70
2017,06,24,00,38,14.70
2017,06,24,00,39,14.60
2017,06,24,00,40,14.60
2017,06,24,00,41,14.60
2017,06,24,00,42,14.60
2017,06,24,00,43,14.60
2017,06,24,00,44,14.60
2017,06,24,00,45,14.60
2017,06,24,00,46,14.60
2017,06,24,00,47,14.60
2017,06,24,00,48,14.60
2017,06,24,00,49,14.50
2017,06,24,00,50,14.50
2017,06,24,00,51,14.50
2017,06,24,00,52,14.50
2017,06,24,00,53,14.50
2017,06,24,00,54,14.50
2017,06,24,00,55,14.50
2017,06,24,00,56,14.50
2017,06,24,00,57,14.40
2017,06,24,00,58,14.40
2017,06,24,00,59,14.40
2017,06,24,01,00,14.40
2017,06,24,01,01,14.40
2017,06,24,01,02,14.40
2017,06,24,01,03,14.40
2017,06,24,01,04,14.40
2017,06,24,01,05,14.30
2017,06,24,01,06,14.30
2017,06,24,01,07,14.30
2017,06,24,01,08,14.30
2017,06,24,01,09,14.30
2017,06,24,01,10,14.30
2017,06,24,01,11,14.20
2017,06,24,01,12,14.20
2017,06,24,01,13,14.20
2017,06,24,01,14,14.20
2017,06,24,01,15,14.20
2017,06,24,01,16,14.10
2017,06,24,01,17,14.10
2017,06,24,01,18,14.10
2017,06,24,01,19,14.10
2017,06,24,01,20,14.00
2017,06,24,01,21,14.00
2017,06,24,01,22,14.00
2017,06,24,01,23,14.00
2017,06,24,01,24,13.90
2017,06,24,01,25,13.90
2017,06,24,01,26,13.90
2017,06,24,01,27,13.90
2017,06,24,01,28,13.90
2017,06,24,01,29,13.80
2017,06,24,01,30,13.80
2017,06,24,01,31,13.80
2017,06,24,01,32,13.80
2017,06,24,01,33,13.80
2017,06,24,01,34,13.80
2017,06,24,01,35,13.80
2017,06,24,01,36,13.80
2017,06,24,01,37,13.70
2017,06,24,01,38,13.70
2017,06,24,01,39,13.70
2017,06,24,01,40,13.70
2017,06,24,01,41,13.70
2017,06,24,01,42,13.70
2017,06,24,01,43,13.70
2017,06,24,01,44,13.60
2017,06,24,01,45,13.60
2017,06,24,01,46,13.60
2017,06,24,01,47,13.60
2017,06,24,01,48,13.60
2017,06,24,01,49,13.60
2017,06,24,01,50,13.60
2017,06,24,01,51,13.60
2017,06,24,01,52,13.60
2017,06,24,01,53,13.60
2017,06,24,01,54,13.60
2017,06,24,01,55,13.50
2017,06,24,01,56,13.50
2017,06,24,01,57,13.50
2017,06,24,01,58,13.50
2017,06,24,01,59,13.50
2017,06,24,02,00,13.50
2017,06,24,02,01,13.50
2017,06,24,02,02,13.50
2017,06,24,02,03,13.50
2017,06,24,02,04,13.50
2017,06,24,02,05,13.50
2017,06,24,02,06,13.50
2017,06,24,02,07,13.40
2017,06,24,02,08,13.40
2017,06,24,02,09,13.40
2017,06,24,02,10,13.40
2017,06,24,02,11,13.40
2017,06,24,02,12,13.40
2017,06,24,02,13,13.40
2017,06,24,02,14,13.40
2017,06,24,02,15,13.40
2017,06,24,02,16,13.30
2017,06,24,02,17,13.30
2017,06,24,02,18,13.30
2017,06,24,02,19,13.30
2017,06,24,02,20,13.30
2017,06,24,02,21,13.30
2017,06,24,02,22,13.30
2017,06,24,02,23,13.30
2017,06,24,02,24,13.30
2017,06,24,02,25,13.30
2017,06,24,02,26,13.30
2017,06,24,02,27,13.20
2017,06,24,02,28,13.20
2017,06,24,02,29,13.20
2017,06,24,02,30,13.20
2017,06,24,02,31,13.20
2017,06,24,02,32,13.20
2017,06,24,02,33,13.20
2017,06,24,02,34,13.10
2017,06,24,02,35,13.10
2017,06,24,02,36,13.10
2017,06,24,02,37,13.10
2017,06,24,02,38,13.10
2017,06,24,02,39,13.00
2017,06,24,02,40,13.00
2017,06,24,02,41,13.00
2017,06,24,02,42,12.90
2017,06,24,02,43,12.90
2017,06,24,02,44,12.90
2017,06,24,02,45,12.90
2017,06,24,02,46,12.90
2017,06,24,02,47,12.80
2017,06,24,02,48,12.80
2017,06,24,02,49,12.80
2017,06,24,02,50,12.80
2017,06,24,02,51,12.80
2017,06,24,02,52,12.80
2017,06,24,02,53,12.80
2017,06,24,02,54,12.80
2017,06,24,02,55,12.70
2017,06,24,02,56,12.70
2017,06,24,02,57,12.70
2017,06,24,02,58,12.70
2017,06,24,02,59,12.70
2017,06,24,03,00,12.70
2017,06,24,03,01,12.70
2017,06,24,03,02,12.70
2017,06,24,03,03,12.70
2017,06,24,03,04,12.70
2017,06,24,03,05,12.70
2017,06,24,03,06,12.70
2017,06,24,03,07,12.70
2017,06,24,03,08,12.70
2017,06,24,03,09,12.70
2017,06,24,03,10,12.70
2017,06,24,03,11,12.70
2017,06,24,03,12,12.70
2017,06,24,03,13,12.70
2017,06,24,03,14,12.70
2017,06,24,03,15,12.70
2017,06,24,03,16,12.70
2017,06,24,03,17,12.60
2017,06,24,03,18,12.60
2017,06,24,03,19,12.60
2017,06,24,03,20,12.60
2017,06,24,03,21,12.60
2017,06,24,03,22,12.50
2017,06,24,03,23,12.50
2017,06,24,03,24,12.50
2017,06,24,03,25,12.50
2017,06,24,03,26,12.50
2017,06,24,03,27,12.40
2017,06,24,03,28,12.40
2017,06,24,03,29,12.40
2017,06,24,03,30,12.40
2017,06,24,03,31,12.40
2017,06,24,03,32,12.40
2017,06,24,03,33,12.30
2017,06,24,03,34,12.30
2017,06,24,03,35,12.30
2017,06,24,03,36,12.30
2017,06,24,03,37,12.30
2017,06,24,03,38,12.30
2017,06,24,03,39,12.30
2017,06,24,03,40,12.20
2017,06,24,03,41,12.20
2017,06,24,03,42,12.20
2017,06,24,03,43,12.20
2017,06,24,03,44,12.20
2017,06,24,03,45,12.20
2017,06,24,03,46,12.20
2017,06,24,03,47,12.20
2017,06,24,03,48,12.20
2017,06,24,03,49,12.10
2017,06,24,03,50,12.10
2017,06,24,03,51,12.10
2017,06,24,03,52,12.10
2017,06,24,03,53,12.10
2017,06,24,03,54,12.10
2017,06,24,03,55,12.10
2017,06,24,03,56,12.10
2017,06,24,03,57,12.10
2017,06,24,03,58,12.10
2017,06,24,03,59,12.10
2017,06,24,04,00,12.10
2017,06,24,04,01,12.10
2017,06,24,04,02,12.10
2017,06,24,04,03,12.10
2017,06,24,04,04,12.10
2017,06,24,04,05,12.10
2017,06,24,04,06,12.10
2017,06,24,04,07,12.10
2017,06,24,04,08,12.10
2017,06,24,04,09,12.10
2017,06,24,04,10,12.10
2017,06,24,04,11,12.10
2017,06,24,04,12,12.10
2017,06,24,04,13,12.10
2017,06,24,04,14,12.10
2017,06,24,04,15,12.10
2017,06,24,04,16,12.00
2017,06,24,04,17,12.00
2017,06,24,04,18,12.00
2017,06,24,04,19,11.90
2017,06,24,04,20,11.90
2017,06,24,04,21,11.90
2017,06,24,04,22,11.90
2017,06,24,04,23,11.80
2017,06,24,04,24,11.80
2017,06,24,04,25,11.80
2017,06,24,04,26,11.80
2017,06,24,04,27,11.80
2017,06,24,04,28,11.80
2017,06,24,04,29,11.80
2017,06,24,04,30,11.70
2017,06,24,04,31,11.70
2017,06,24,04,32,11.70
2017,06,24,04,33,11.70
2017,06,24,04,34,11.70
2017,06,24,04,35,11.70
2017,06,24,04,36,11.70
2017,06,24,04,37,11.60
2017,06,24,04,38,11.60
2017,06,24,04,39,11.60
2017,06,24,04,40,11.60
2017,06,24,04,41,11.60
2017,06,24,04,42,11.60
2017,06,24,04,43,11.60
2017,06,24,04,44,11.60
2017,06,24,04,45,11.60
2017,06,24,04,46,11.60
2017,06,24,04,47,11.50
2017,06,24,04,48,11.50
2017,06,24,04,49,11.50
2017,06,24,04,50,11.50
2017,06,24,04,51,11.50
2017,06,24,04,52,11.50
2017,06,24,04,53,11.40
2017,06,24,04,54,11.40
2017,06,24,04,55,11.40
2017,06,24,04,56,11.40
2017,06,24,04,57,11.40
2017,06,24,04,58,11.40
2017,06,24,04,59,11.40
2017,06,24,05,00,11.40
2017,06,24,05,01,11.40
2017,06,24,05,02,11.30
2017,06,24,05,03,11.30
2017,06,24,05,04,11.30
2017,06,24,05,05,11.30
2017,06,24,05,06,11.30
2017,06,24,05,07,11.30
2017,06,24,05,08,11.30
2017,06,24,05,09,11.30
2017,06,24,05,10,11.30
2017,06,24,05,11,11.30
2017,06,24,05,12,11.30
2017,06,24,05,13,11.30
2017,06,24,05,14,11.30
2017,06,24,05,15,11.30
2017,06,24,05,16,11.30
2017,06,24,05,17,11.30
2017,06,24,05,18,11.30
2017,06,24,05,19,11.20
2017,06,24,05,20,11.20
2017,06,24,05,21,11.20
2017,06,24,05,22,11.20
2017,06,24,05,23,11.20
2017,06,24,05,24,11.20
2017,06,24,05,25,11.20
2017,06,24,05,26,11.20
2017,06,24,05,27,11.20
2017,06,24,05,28,11.20
2017,06,24,05,29,11.10
2017,06,24,05,30,11.10
2017,06,24,05,31,11.10
2017,06,24,05,32,11.10
2017,06,24,05,33,11.10
2017,06,24,05,34,11.10
2017,06,24,05,35,11.10
2017,06,24,05,36,11.10
2017,06,24,05,37,11.10
2017,06,24,05,38,11.10
2017,06,24,05,39,11.10
2017,06,24,05,40,11.10
2017,06,24,05,41,11.10
2017,06,24,05,42,11.00
2017,06,24,05,43,11.00
2017,06,24,05,44,11.00
2017,06,24,05,45,11.00
2017,06,24,05,46,11.00
2017,06,24,05,47,10.90
2017,06,24,05,48,10.90
2017,06,24,05,49,10.90
2017,06,24,05,50,10.90
2017,06,24,05,51,10.90
2017,06,24,05,52,10.90
2017,06,24,05,53,10.90
2017,06,24,05,54,10.90
2017,06,24,05,55,10.90
2017,06,24,05,56,10.90
2017,06,24,05,57,10.90
2017,06,24,05,58,10.90
2017,06,24,05,59,10.90
2017,06,24,06,00,10.90
2017,06,24,06,01,10.90
2017,06,24,06,02,10.90
2017,06,24,06,03,10.90
2017,06,24,06,04,10.90
2017,06,24,06,05,10.90
2017,06,24,06,06,10.90
2017,06,24,06,07,10.90
2017,06,24,06,08,10.90
2017,06,24,06,09,10.90
2017,06,24,06,10,10.90
2017,06,24,06,11,10.90
2017,06,24,06,12,10.90
2017,06,24,06,13,10.90
2017,06,24,06,14,10.90
2017,06,24,06,15,10.90
2017,06,24,06,16,10.90
2017,06,24,06,17,10.90
2017,06,24,06,18,10.90
2017,06,24,06,19,10.90
2017,06,24,06,20,10.90
2017,06,24,06,21,10.90
2017,06,24,06,22,10.90
2017,06,24,06,23,10.90
2017,06,24,06,24,10.90
2017,06,24,06,25,10.90
2017,06,24,06,26,10.90
2017,06,24,06,27,10.90
2017,06,24,06,28,10.90
2017,06,24,06,29,10.90
2017,06,24,06,30,10.90
2017,06,24,06,31,10.90
2017,06,24,06,32,10.90
2017,06,24,06,33,10.90
2017,06,24,06,34,10.90
2017,06,24,06,35,10.90
2017,06,24,06,36,10.90
2017,06,24,06,37,10.90
2017,06,24,06,38,10.90
2017,06,24,06,39,11.00
2017,06,24,06,40,11.00
2017,06,24,06,41,11.00
2017,06,24,06,42,11.00
2017,06,24,06,43,11.00
2017,06,24,06,44,11.00
2017,06,24,06,45,11.00
2017,06,24,06,46,11.00
2017,06,24,06,47,11.00
2017,06,24,06,48,11.00
2017,06,24,06,49,11.10
2017,06,24,06,50,11.10
2017,06,24,06,51,11.00
2017,06,24,06,52,11.00
2017,06,24,06,53,11.00
2017,06,24,06,54,11.00
2017,06,24,06,55,11.00
2017,06,24,06,56,11.00
2017,06,24,06,57,11.00
2017,06,24,06,58,11.10
2017,06,24,06,59,11.10
2017,06,24,07,00,11.10
2017,06,24,07,01,11.10
2017,06,24,07,02,11.10
2017,06,24,07,03,11.10
2017,06,24,07,04,11.10
2017,06,24,07,05,11.10
2017,06,24,07,06,11.10
2017,06,24,07,07,11.10
2017,06,24,07,08,11.10
2017,06,24,07,09,11.10
2017,06,24,07,10,11.10
2017,06,24,07,11,11.10
2017,06,24,07,12,11.20
2017,06,24,07,13,11.20
2017,06,24,07,14,11.20
2017,06,24,07,15,11.20
2017,06,24,07,16,11.20
2017,06,24,07,17,11.20
2017,06,24,07,18,11.20
2017,06,24,07,19,11.20
2017,06,24,07,20,11.20
2017,06,24,07,21,11.20
2017,06,24,07,22,11.20
2017,06,24,07,23,11.30
2017,06,24,07,24,11.30
2017,06,24,07,25,11.30
2017,06,24,07,26,11.30
2017,06,24,07,27,11.30
2017,06,24,07,28,11.30
2017,06,24,07,29,11.30
2017,06,24,07,30,11.30
2017,06,24,07,31,11.30
2017,06,24,07,32,11.40
2017,06,24,07,33,11.40
2017,06,24,07,34,11.40
2017,06,24,07,35,11.40
2017,06,24,07,36,11.40
2017,06,24,07,37,11.40
2017,06,24,07,38,11.50
2017,06,24,07,39,11.50
2017,06,24,07,40,11.50
2017,06,24,07,41,11.60
2017,06,24,07,42,11.60
2017,06,24,07,43,11.60
2017,06,24,07,44,11.60
2017,06,24,07,45,11.70
2017,06,24,07,46,11.70
2017,06,24,07,47,11.70
2017,06,24,07,48,11.80
2017,06,24,07,49,11.80
2017,06,24,07,50,11.80
2017,06,24,07,51,11.90
2017,06,24,07,52,11.90
2017,06,24,07,53,12.00
2017,06,24,07,54,12.00
2017,06,24,07,55,12.10
2017,06,24,07,56,12.10
2017,06,24,07,57,12.10
2017,06,24,07,58,12.20
2017,06,24,07,59,12.20
2017,06,24,08,00,12.20
2017,06,24,08,01,12.30
2017,06,24,08,02,12.30
2017,06,24,08,03,12.30
2017,06,24,08,04,12.40
2017,06,24,08,05,12.40
2017,06,24,08,06,12.40
2017,06,24,08,07,12.50
2017,06,24,08,08,12.60
2017,06,24,08,09,12.60
2017,06,24,08,10,12.70
2017,06,24,08,11,12.70
2017,06,24,08,12,12.80
2017,06,24,08,13,12.80
2017,06,24,08,14,12.90
2017,06,24,08,15,12.90
2017,06,24,08,16,13.00
2017,06,24,08,17,13.00
2017,06,24,08,18,13.10
2017,06,24,08,19,13.10
2017,06,24,08,20,13.20
2017,06,24,08,21,13.20
2017,06,24,08,22,13.20
2017,06,24,08,23,13.30
2017,06,24,08,24,13.30
2017,06,24,08,25,13.30
2017,06,24,08,26,13.30
2017,06,24,08,27,13.30
2017,06,24,08,28,13.40
2017,06,24,08,29,13.40
2017,06,24,08,30,13.40
2017,06,24,08,31,13.50
2017,06,24,08,32,13.60
2017,06,24,08,33,13.60
2017,06,24,08,34,13.70
2017,06,24,08,35,13.70
2017,06,24,08,36,13.80
2017,06,24,08,37,13.80
2017,06,24,08,38,13.90
2017,06,24,08,39,14.00
2017,06,24,08,40,14.00
2017,06,24,08,41,14.00
2017,06,24,08,42,14.10
2017,06,24,08,43,14.10
2017,06,24,08,44,14.10
2017,06,24,08,45,14.20
2017,06,24,08,46,14.20
2017,06,24,08,47,14.30
2017,06,24,08,48,14.30
2017,06,24,08,49,14.40
2017,06,24,08,50,14.40
2017,06,24,08,51,14.50
2017,06,24,08,52,14.50
2017,06,24,08,53,14.60
2017,06,24,08,54,14.60
2017,06,24,08,55,14.70
2017,06,24,08,56,14.70
2017,06,24,08,57,14.80
2017,06,24,08,58,14.90
2017,06,24,08,59,15.00
2017,06,24,09,00,15.00
2017,06,24,09,01,15.00
2017,06,24,09,02,15.00
2017,06,24,09,03,15.10
2017,06,24,09,04,15.20
2017,06,24,09,05,15.20
2017,06,24,09,06,15.30
2017,06,24,09,07,15.40
2017,06,24,09,08,15.40
2017,06,24,09,09,15.50
2017,06,24,09,10,15.50
2017,06,24,09,11,15.60
2017,06,24,09,12,15.60
2017,06,24,09,13,15.70
2017,06,24,09,14,15.70
2017,06,24,09,15,15.80
2017,06,24,09,16,15.90
2017,06,24,09,17,16.00
2017,06,24,09,18,16.10
2017,06,24,09,19,16.10
2017,06,24,09,20,16.20
2017,06,24,09,21,16.30
2017,06,24,09,22,16.30
2017,06,24,09,23,16.40
2017,06,24,09,24,16.50
2017,06,24,09,25,16.50
2017,06,24,09,26,16.60
2017,06,24,09,27,16.70
2017,06,24,09,28,16.70
2017,06,24,09,29,16.80
2017,06,24,09,30,16.90
2017,06,24,09,31,17.00
2017,06,24,09,32,17.10
2017,06,24,09,33,17.30
2017,06,24,09,34,17.40
2017,06,24,09,35,17.50
2017,06,24,09,36,17.70
2017,06,24,09,37,17.90
2017,06,24,09,38,18.10
2017,06,24,09,39,18.20
2017,06,24,09,40,18.40
2017,06,24,09,41,18.60
2017,06,24,09,42,18.80
2017,06,24,09,43,19.00
2017,06,24,09,44,19.20
2017,06,24,09,45,19.40
2017,06,24,09,46,19.50
2017,06,24,09,47,19.70
2017,06,24,09,48,19.90
2017,06,24,09,49,20.00
2017,06,24,09,50,20.20
2017,06,24,09,51,20.30
2017,06,24,09,52,20.40
2017,06,24,09,53,20.50
2017,06,24,09,54,20.70
2017,06,24,09,55,20.80
2017,06,24,09,56,20.90
2017,06,24,09,57,21.00
2017,06,24,09,58,21.00
2017,06,24,09,59,21.10
2017,06,24,10,00,21.20
2017,06,24,10,01,21.30
2017,06,24,10,02,21.40
2017,06,24,10,03,21.50
2017,06,24,10,04,21.50
2017,06,24,10,05,21.60
2017,06,24,10,06,21.70
2017,06,24,10,07,21.70
2017,06,24,10,08,21.80
2017,06,24,10,09,21.80
2017,06,24,10,10,21.90
2017,06,24,10,11,22.00
2017,06,24,10,12,22.00
2017,06,24,10,13,22.10
2017,06,24,10,14,22.20
2017,06,24,10,15,22.30
2017,06,24,10,16,22.40
2017,06,24,10,17,22.40
2017,06,24,10,18,22.50
2017,06,24,10,19,22.60
2017,06,24,10,20,22.70
2017,06,24,10,21,22.70
2017,06,24,10,22,22.80
2017,06,24,10,23,22.80
2017,06,24,10,24,22.90
2017,06,24,10,25,22.90
2017,06,24,10,26,22.90
2017,06,24,10,27,23.00
2017,06,24,10,28,23.00
2017,06,24,10,29,23.10
2017,06,24,10,30,23.10
2017,06,24,10,31,23.10
2017,06,24,10,32,23.10
2017,06,24,10,33,23.20
2017,06,24,10,34,23.20
2017,06,24,10,35,23.20
2017,06,24,10,36,23.30
2017,06,24,10,37,23.30
2017,06,24,10,38,23.40
2017,06,24,10,39,23.40
2017,06,24,10,40,23.40
2017,06,24,10,41,23.50
2017,06,24,10,42,23.50
2017,06,24,10,43,23.60
2017,06,24,10,44,23.60
2017,06,24,10,45,23.70
2017,06,24,10,46,23.70
2017,06,24,10,47,23.80
2017,06,24,10,48,23.90
2017,06,24,10,49,24.00
2017,06,24,10,50,24.10
2017,06,24,10,51,24.10
2017,06,24,10,52,24.20
2017,06,24,10,53,24.30
2017,06,24,10,54,24.30
2017,06,24,10,55,24.40
2017,06,24,10,56,24.40
2017,06,24,10,57,24.50
2017,06,24,10,58,24.50
2017,06,24,10,59,24.60
2017,06,24,11,00,24.60
2017,06,24,11,01,24.70
2017,06,24,11,02,24.70
2017,06,24,11,03,24.70
2017,06,24,11,04,24.70
2017,06,24,11,05,24.60
2017,06,24,11,06,24.60
2017,06,24,11,07,24.60
2017,06,24,11,08,24.60
2017,06,24,11,09,24.60
2017,06,24,11,10,24.60
2017,06,24,11,11,24.60
2017,06,24,11,12,24.60
2017,06,24,11,13,24.70
2017,06,24,11,14,24.70
2017,06,24,11,15,24.70
2017,06,24,11,16,24.70
2017,06,24,11,17,24.70
2017,06,24,11,18,24.70
2017,06,24,11,19,24.70
2017,06,24,11,20,24.70
2017,06,24,11,21,24.70
2017,06,24,11,22,24.80
2017,06,24,11,23,24.80
2017,06,24,11,24,24.80
2017,06,24,11,25,24.80
2017,06,24,11,26,24.80
2017,06,24,11,27,24.80
2017,06,24,11,28,24.80
2017,06,24,11,29,24.70
2017,06,24,11,30,24.70
2017,06,24,11,31,24.80
2017,06,24,11,32,24.80
2017,06,24,11,33,24.80
2017,06,24,11,34,24.80
2017,06,24,11,35,24.90
2017,06,24,11,36,24.90
2017,06,24,11,37,24.90
2017,06,24,11,38,24.90
2017,06,24,11,39,25.00
2017,06,24,11,40,25.00
2017,06,24,11,41,25.10
2017,06,24,11,42,25.10
2017,06,24,11,43,25.20
2017,06,24,11,44,25.30
2017,06,24,11,45,25.30
2017,06,24,11,46,25.40
2017,06,24,11,47,25.40
2017,06,24,11,48,25.40
2017,06,24,11,49,25.50
2017,06,24,11,50,25.50
2017,06,24,11,51,25.50
2017,06,24,11,52,25.50
2017,06,24,11,53,25.50
2017,06,24,11,54,25.60
2017,06,24,11,55,25.60
2017,06,24,11,56,25.60
2017,06,24,11,57,25.60
2017,06,24,11,58,25.60
2017,06,24,11,59,25.60
2017,06,24,12,00,25.60
2017,06,24,12,01,25.60
2017,06,24,12,02,25.70
2017,06,24,12,03,25.70
2017,06,24,12,04,25.70
2017,06,24,12,05,25.80
2017,06,24,12,06,25.90
2017,06,24,12,07,25.90
2017,06,24,12,08,25.90
2017,06,24,12,09,26.00
2017,06,24,12,10,26.00
2017,06,24,12,11,26.10
2017,06,24,12,12,26.10
2017,06,24,12,13,26.10
2017,06,24,12,14,26.20
2017,06,24,12,15,26.30
2017,06,24,12,16,26.30
2017,06,24,12,17,26.40
2017,06,24,12,18,26.50
2017,06,24,12,19,26.50
2017,06,24,12,20,26.50
2017,06,24,12,21,26.60
2017,06,24,12,22,26.60
2017,06,24,12,23,26.60
2017,06,24,12,24,26.60
2017,06,24,12,25,26.70
2017,06,24,12,26,26.70
2017,06,24,12,27,26.70
2017,06,24,12,28,26.70
2017,06,24,12,29,26.70
2017,06,24,12,30,26.70
2017,06,24,12,31,26.70
2017,06,24,12,32,26.80
2017,06,24,12,33,26.80
2017,06,24,12,34,26.80
2017,06,24,12,35,26.80
2017,06,24,12,36,26.80
2017,06,24,12,37,26.80
2017,06,24,12,38,26.90
2017,06,24,12,39,26.90
2017,06,24,12,40,26.90
2017,06,24,12,41,26.80
2017,06,24,12,42,26.80
2017,06,24,12,43,26.70
2017,06,24,12,44,26.70
2017,06,24,12,45,26.60
2017,06,24,12,46,26.60
2017,06,24,12,47,26.50
2017,06,24,12,48,26.50
2017,06,24,12,49,26.40
2017,06,24,12,50,26.40
2017,06,24,12,51,26.40
2017,06,24,12,52,26.30
2017,06,24,12,53,26.30
2017,06,24,12,54,26.30
2017,06,24,12,55,26.30
2017,06,24,12,56,26.30
2017,06,24,12,57,26.30
2017,06,24,12,58,26.30
2017,06,24,12,59,26.30
2017,06,24,13,00,26.30
2017,06,24,13,01,26.40
2017,06,24,13,02,26.40
2017,06,24,13,03,26.40
2017,06,24,13,04,26.30
2017,06,24,13,05,26.30
2017,06,24,13,06,26.30
2017,06,24,13,07,26.30
2017,06,24,13,08,26.30
2017,06,24,13,09,26.30
2017,06,24,13,10,26.40
2017,06,24,13,11,26.50
2017,06,24,13,12,26.50
2017,06,24,13,13,26.60
2017,06,24,13,14,26.60
2017,06,24,13,15,26.70
2017,06,24,13,16,26.80
2017,06,24,13,17,26.80
2017,06,24,13,18,26.90
2017,06,24,13,19,26.90
2017,06,24,13,20,26.90
2017,06,24,13,21,26.90
2017,06,24,13,22,26.90
2017,06,24,13,23,26.90
2017,06,24,13,24,26.90
2017,06,24,13,25,26.90
2017,06,24,13,26,27.00
2017,06,24,13,27,27.00
2017,06,24,13,28,27.00
2017,06,24,13,29,27.10
2017,06,24,13,30,27.10
2017,06,24,13,31,27.20
2017,06,24,13,32,27.20
2017,06,24,13,33,27.30
2017,06,24,13,34,27.30
2017,06,24,13,35,27.30
2017,06,24,13,36,27.30
2017,06,24,13,37,27.30
2017,06,24,13,38,27.40
2017,06,24,13,39,27.40
2017,06,24,13,40,27.40
2017,06,24,13,41,27.50
2017,06,24,13,42,27.60
2017,06,24,13,43,27.60
2017,06,24,13,44,27.70
2017,06,24,13,45,27.80
2017,06,24,13,46,27.80
2017,06,24,13,47,27.80
2017,06,24,13,48,27.80
2017,06,24,13,49,27.90
2017,06,24,13,50,27.90
2017,06,24,13,51,27.80
2017,06,24,13,52,27.80
2017,06,24,13,53,27.80
2017,06,24,13,54,27.80
2017,06,24,13,55,27.80
2017,06,24,13,56,27.80
2017,06,24,13,57,27.80
2017,06,24,13,58,27.80
2017,06,24,13,59,27.90
2017,06,24,14,00,27.90
2017,06,24,14,01,27.90
2017,06,24,14,02,27.90
2017,06,24,14,03,27.90
2017,06,24,14,04,28.00
2017,06,24,14,05,28.00
2017,06,24,14,06,28.00
2017,06,24,14,07,28.00
2017,06,24,14,08,28.00
2017,06,24,14,09,28.00
2017,06,24,14,10,28.00
2017,06,24,14,11,28.10
2017,06,24,14,12,28.20
2017,06,24,14,13,28.40
2017,06,24,14,14,28.50
2017,06,24,14,15,28.60
2017,06,24,14,16,28.70
2017,06,24,14,17,28.80
2017,06,24,14,18,28.80
2017,06,24,14,19,28.80
2017,06,24,14,20,28.80
2017,06,24,14,21,28.90
2017,06,24,14,22,28.90
2017,06,24,14,23,28.90
2017,06,24,14,24,29.00
2017,06,24,14,25,29.10
2017,06,24,14,26,29.20
2017,06,24,14,27,29.20
2017,06,24,14,28,29.20
2017,06,24,14,29,29.30
2017,06,24,14,30,29.30
2017,06,24,14,31,29.40
2017,06,24,14,32,29.60
2017,06,24,14,33,29.70
2017,06,24,14,34,29.80
2017,06,24,14,35,29.80
2017,06,24,14,36,29.90
2017,06,24,14,37,29.90
2017,06,24,14,38,29.90
2017,06,24,14,39,30.00
2017,06,24,14,40,29.90
2017,06,24,14,41,29.90
2017,06,24,14,42,30.00
2017,06,24,14,43,30.00
2017,06,24,14,44,30.00
2017,06,24,14,45,30.10
2017,06,24,14,46,30.10
2017,06,24,14,47,30.20
2017,06,24,14,48,30.30
2017,06,24,14,49,30.30
2017,06,24,14,50,30.40
2017,06,24,14,51,30.50
2017,06,24,14,52,30.60
2017,06,24,14,53,30.70
2017,06,24,14,54,30.80
2017,06,24,14,55,30.90
2017,06,24,14,56,30.90
2017,06,24,14,57,30.90
2017,06,24,14,58,31.00
2017,06,24,14,59,31.00
2017,06,24,15,00,31.10
2017,06,24,15,01,31.20
2017,06,24,15,02,31.20
2017,06,24,15,03,31.20
2017,06,24,15,04,31.20
2017,06,24,15,05,31.30
2017,06,24,15,06,31.30
2017,06,24,15,07,31.30
2017,06,24,15,08,31.30
2017,06,24,15,09,31.30
2017,06,24,15,10,31.30
2017,06,24,15,11,31.20
2017,06,24,15,12,31.20
2017,06,24,15,13,31.20
2017,06,24,15,14,31.20
2017,06,24,15,15,31.20
2017,06,24,15,16,31.20
2017,06,24,15,17,31.20
2017,06,24,15,18,31.20
2017,06,24,15,19,31.30
2017,06,24,15,20,31.30
2017,06,24,15,21,31.30
2017,06,24,15,22,31.30
2017,06,24,15,23,31.30
2017,06,24,15,24,31.30
2017,06,24,15,25,31.30
2017,06,24,15,26,31.40
2017,06,24,15,27,31.30
2017,06,24,15,28,31.30
2017,06,24,15,29,31.40
2017,06,24,15,30,31.40
2017,06,24,15,31,31.50
2017,06,24,15,32,31.50
2017,06,24,15,33,31.60
2017,06,24,15,34,31.70
2017,06,24,15,35,31.80
2017,06,24,15,36,31.90
2017,06,24,15,37,32.00
2017,06,24,15,38,32.00
2017,06,24,15,39,32.10
2017,06,24,15,40,32.00
2017,06,24,15,41,31.90
2017,06,24,15,42,31.80
2017,06,24,15,43,31.80
2017,06,24,15,44,31.70
2017,06,24,15,45,31.70
2017,06,24,15,46,31.70
2017,06,24,15,47,31.70
2017,06,24,15,48,31.60
2017,06,24,15,49,31.60
2017,06,24,15,50,31.60
2017,06,24,15,51,31.60
2017,06,24,15,52,31.70
2017,06,24,15,53,31.70
2017,06,24,15,54,31.70
2017,06,24,15,55,31.70
2017,06,24,15,56,31.60
2017,06,24,15,57,31.60
2017,06,24,15,58,31.70
2017,06,24,15,59,31.70
2017,06,24,16,00,31.70
2017,06,24,16,01,31.80
2017,06,24,16,02,31.90
2017,06,24,16,03,31.90
2017,06,24,16,04,31.90
2017,06,24,16,05,31.90
2017,06,24,16,06,32.00
2017,06,24,16,07,32.00
2017,06,24,16,08,32.10
2017,06,24,16,09,32.00
2017,06,24,16,10,32.00
2017,06,24,16,11,32.00
2017,06,24,16,12,32.00
2017,06,24,16,13,32.00
2017,06,24,16,14,32.00
2017,06,24,16,15,31.90
2017,06,24,16,16,31.80
2017,06,24,16,17,31.70
2017,06,24,16,18,31.70
2017,06,24,16,19,31.70
2017,06,24,16,20,31.80
2017,06,24,16,21,31.80
2017,06,24,16,22,31.90
2017,06,24,16,23,31.90
2017,06,24,16,24,32.00
2017,06,24,16,25,32.00
2017,06,24,16,26,32.10
2017,06,24,16,27,32.00
2017,06,24,16,28,32.00
2017,06,24,16,29,31.90
2017,06,24,16,30,31.90
2017,06,24,16,31,31.90
2017,06,24,16,32,31.80
2017,06,24,16,33,31.80
2017,06,24,16,34,31.80
2017,06,24,16,35,31.70
2017,06,24,16,36,31.60
2017,06,24,16,37,31.60
2017,06,24,16,38,31.50
2017,06,24,16,39,31.40
2017,06,24,16,40,31.40
2017,06,24,16,41,31.30
2017,06,24,16,42,31.20
2017,06,24,16,43,31.20
2017,06,24,16,44,31.10
2017,06,24,16,45,31.00
2017,06,24,16,46,31.00
2017,06,24,16,47,30.90
2017,06,24,16,48,30.90
2017,06,24,16,49,30.90
2017,06,24,16,50,30.80
2017,06,24,16,51,30.80
2017,06,24,16,52,30.70
2017,06,24,16,53,30.60
2017,06,24,16,54,30.60
2017,06,24,16,55,30.60
2017,06,24,16,56,30.60
2017,06,24,16,57,30.60
2017,06,24,16,58,30.70
2017,06,24,16,59,30.70
2017,06,24,17,00,30.70
2017,06,24,17,01,30.70
2017,06,24,17,02,30.70
2017,06,24,17,03,30.70
2017,06,24,17,04,30.70
2017,06,24,17,05,30.70
2017,06,24,17,06,30.80
2017,06,24,17,07,30.80
2017,06,24,17,08,30.90
2017,06,24,17,09,31.00
2017,06,24,17,10,31.10
2017,06,24,17,11,31.10
2017,06,24,17,12,31.10
2017,06,24,17,13,31.10
2017,06,24,17,14,31.20
2017,06,24,17,15,31.20
2017,06,24,17,16,31.30
2017,06,24,17,17,31.30
2017,06,24,17,18,31.30
2017,06,24,17,19,31.30